Showing default

YAOGAN-39 04A, 58141

Orbit data source: Space-Track

YAOGAN-39 04A, 58141 is a payload satellite owned by PLA GAD (CN) in LEO that was launched on Mon, 23 Oct 2023 UTC via a CHANG ZHENG 2D launch vehicle from the Xichang Space Center, China (XSC). Payload-class satellites include a variety of spacecraft equipped with specific instruments for various scientific and technological missions. These include communications satellites like Starlink; space stations such as the ISS; scientific satellites like the Hubble; Earth observation satellites from companies like Planet Labs, Umbra, and HawkEye 360; GPS; miniature CubeSats for education and research; and military/defense satellites.

Loading next visibility...
Identifier
58141, 2023-163A
Orbit
LEO
Country
Flag of CNCN / PRC
Related business
Manufacturer
DFH
Mission
Operational Defense Sigint
Bus & Motor
Unknown
Mass
~300 kg wet, ~300 kg dry
Launch date (UTC)
2023-10-23 (2 years ago)
Launch vehicle
CHANG ZHENG 2D
Launch site
Xichang Space Center, China (XSC)
Object type
Payload
Rocket body
Debris
Shape & HBR
Box + 2 Pan, 2.5 m
Radar Cross Section
11.063 m², Large (>1 m²)

Expand to show TLE details & history
Last TLE update: 2 days ago

TLE from 2 days ago
0 YAOGAN-39 04A
1 58141U 23163A   26034.37863591  .00015447  00000-0  63603-3 0  9993
2 58141  35.0006 106.2388 0006621 236.8932 123.1148 15.23264436127164
Epoch: 2026-02-03T09:05Z
TLE epoch observation values (Epoch: 2026-02-03T09:05:14.142Z)
Latitude
0.00001°
Longitude
-163.63054°
Altitude
497.397 km
Speed
7.617 km/s
True Right ascension
07h 04m 57s
True Declination
0° 00' 00"
Sunlit
Object was in full shadow at epoch
Visualization orbit readout
Latitude
Unknown
Longitude
Unknown
Altitude
Unknown
Speed
Unknown
Apparent Right ascension
Unknown
Apparent Declination
Unknown
Sunlit
N/A
Visualization observer readout
Local Sidereal Time
04:37:53
Azimuth
Unknown
Elevation
Unknown
Doppler factor
Unknown
Orbital elements
Apogee altitude
503.806 km
Perigee altitude
494.699 km
Semi-major axis
6,877.389 km
Eccentricity
0.00066
Inclination
35.0006°
RAAN
106.2388°
Arg. of periapsis
236.8932°
True anomaly
123.17832°
Mean anomaly
123.1148°
Eccentric anomaly
123.14656°
Mean motion
3.80547 °/min
Orbital period
94.6 mins
BSTAR
0.00063603
Loading maneuver chart data...
Computing Atmospheric mass density...
Loading historical data...
Loading historical data...
Loading historical data...
Loading historical data...
Loading historical data...
Loading historical data...
Loading historical data...
Other satellites on launch #163 in the year 2023 (2023-10-23 UTC)

Documentation

Showing up to 5 results
|